Theta_e
291 293 293 294 294 295 296 296 300 302 304 305 304 303 303 303 302 302 303 302 301 301 300 300 298 297 297 296 294 293 293 293 292 292 292 293 293 293 293 294 294 294 294 295 294 294 293 293 293 292 292 292 292 291 290 290 289 288 287 288 289 290 288 287 288 292 293 289 289 288 289 289 291 290 289 288 287 285 284 284 284 285 286 286 284
291 292 293 293 293 294 295 296 299 301 302 304 303 304 304 304 302 302 302 302 302 301 301 300 299 298 296 293 292 293 293 292 290 291 291 292 291 291 291 291 291 291 291 291 291 292 291 291 290 290 290 289 289 289 288 289 288 288 287 286 286 287 285 285 286 289 290 288 287 286 286 287 287 287 287 287 287 286 285 285 284 285 285 286 284
291 292 292 293 293 294 295 295 298 302 302 303 305 305 304 304 303 302 302 302 302 301 300 297 296 295 294 292 292 289 290 290 290 290 291 290 289 289 289 289 289 289 289 289 289 289 289 289 288 288 288 289 288 287 287 286 286 286 286 286 285 285 285 286 285 287 288 286 287 285 283 281 285 283 283 284 285 284 284 284 284 284 284 284 284
290 291 292 292 293 294 294 295 298 300 300 302 304 303 303 303 303 303 302 301 300 299 297 296 295 293 292 292 291 289 288 289 289 290 290 289 287 287 287 287 287 287 287 287 287 287 287 287 287 287 287 287 287 286 285 285 285 285 285 285 285 284 282 284 285 285 286 288 288 286 284 280 280 278 280 281 282 282 284 283 284 283 283 283 284
291 291 291 292 292 293 294 295 296 299 299 301 302 301 301 300 301 300 299 298 297 296 295 294 292 291 290 290 289 288 288 288 288 287 287 287 286 285 285 286 286 286 286 286 287 286 286 286 286 286 286 286 286 285 285 284 284 284 284 284 283 283 282 281 284 284 284 285 285 279 279 278 279 277 277 280 280 280 281 282 284 282 282 283 282
292 292 292 292 293 293 293 294 295 298 299 300 301 300 299 299 298 298 297 295 295 295 294 293 292 290 289 288 287 286 286 286 286 285 285 285 284 283 284 285 285 285 285 285 285 286 285 285 285 285 285 285 286 285 284 284 284 284 283 283 282 282 283 282 281 283 283 284 283 282 280 277 277 279 276 277 278 279 280 281 281 281 279 281 282
291 291 291 292 292 292 293 293 294 297 299 299 298 298 298 297 296 296 295 294 295 294 294 293 292 291 291 290 288 287 286 284 283 284 284 283 284 284 283 284 284 284 283 284 284 284 284 284 284 284 284 284 285 285 284 283 283 283 283 283 283 284 282 281 280 280 280 282 282 282 282 282 281 277 279 276 273 275 277 279 279 281 279 279 281
291 291 292 292 293 293 293 294 294 296 296 296 297 297 296 295 294 294 293 293 293 293 292 293 291 290 289 288 287 286 284 283 283 283 283 284 283 283 283 283 283 283 283 283 283 283 284 283 284 284 283 283 284 283 283 283 283 283 283 283 283 282 282 281 279 279 279 280 282 281 281 280 279 280 278 277 277 274 276 277 277 280 280 280 279
292 291 291 292 293 294 294 293 294 294 293 294 296 295 295 294 294 293 292 292 292 291 291 290 291 289 288 287 285 284 284 284 284 285 283 283 282 282 282 281 282 282 282 282 282 283 283 283 283 283 283 283 283 282 282 282 282 282 282 282 282 282 282 281 281 279 279 279 277 278 278 278 278 278 277 277 276 275 274 275 276 277 277 278 280
291 292 292 292 293 294 294 293 292 293 291 293 293 294 294 293 293 293 292 292 292 291 291 289 289 288 287 286 284 283 284 283 283 282 282 282 282 281 281 281 281 281 281 281 282 282 282 282 282 282 282 282 282 281 281 281 281 281 281 281 281 281 280 281 280 279 279 278 278 279 278 277 276 276 276 275 275 276 276 275 275 275 275 276 279
290 290 291 292 292 293 292 292 292 290 290 292 293 293 293 293 293 292 292 292 293 292 290 288 287 287 286 285 284 283 283 282 282 281 281 281 281 280 280 281 281 281 281 281 281 281 281 282 282 281 282 282 282 281 281 281 280 281 280 280 280 280 280 280 280 279 279 278 278 278 278 278 278 277 276 277 276 274 274 275 274 276 275 275 276
290 289 290 291 290 290 290 291 290 290 289 291 292 293 292 292 292 292 291 291 291 291 289 287 287 286 286 285 284 283 283 282 282 281 281 281 280 280 280 280 280 281 280 280 280 280 281 281 281 281 281 281 280 280 280 280 280 280 280 280 279 279 279 279 278 278 278 277 277 277 278 278 278 278 277 277 276 276 277 274 275 275 275 275 277
289 289 290 290 290 290 290 290 289 289 290 290 291 292 292 291 291 291 290 290 289 288 287 287 286 286 285 285 284 284 283 282 282 281 281 281 281 280 280 280 280 280 279 280 279 280 281 281 281 281 281 281 281 281 280 280 280 279 279 279 279 278 278 278 278 277 277 277 277 277 277 278 278 277 277 277 277 276 276 274 274 276 274 274 275
289 289 290 290 290 290 290 290 290 289 289 290 290 292 292 291 290 290 289 289 288 287 287 286 286 285 285 284 284 284 283 282 282 281 281 281 281 281 280 280 280 280 280 280 280 280 280 280 281 281 280 280 280 280 280 279 280 279 279 279 278 278 278 278 278 277 277 276 277 276 276 276 276 277 276 277 276 276 275 274 274 274 274 274 275
288 289 289 289 290 290 290 290 290 289 289 289 289 291 291 291 290 290 288 287 287 287 286 286 285 285 284 284 284 283 282 282 281 282 281 281 281 280 280 280 280 279 280 280 280 280 280 280 280 280 280 280 280 279 280 279 279 279 279 279 278 278 278 278 277 277 278 276 276 277 277 277 276 276 276 277 277 277 276 275 275 273 273 273 272
288 288 288 289 289 289 290 289 289 289 289 289 289 290 290 290 289 289 288 287 286 286 286 285 285 284 284 283 283 283 282 281 281 282 280 281 281 280 280 279 280 280 280 280 280 280 280 280 280 279 279 279 279 279 279 279 278 279 278 278 279 279 278 277 277 277 277 276 276 275 276 276 276 276 277 276 276 277 277 276 275 275 274 270 273
288 288 288 288 288 288 289 289 288 288 288 288 289 289 289 289 288 287 287 286 286 286 286 285 284 284 283 283 283 282 282 281 281 280 280 280 280 280 280 279 280 280 281 280 280 279 279 279 279 279 279 279 279 278 278 278 278 279 278 278 278 278 278 277 277 277 276 276 276 276 276 277 276 276 276 277 277 276 276 276 275 274 275 273 270
287 287 287 288 288 288 288 288 288 288 288 288 288 288 288 288 288 287 286 286 286 286 285 285 284 284 283 283 283 283 282 281 281 280 280 280 280 280 280 280 280 281 281 281 279 279 279 279 279 278 278 278 278 278 278 278 277 278 277 278 277 278 278 277 277 276 276 276 276 275 275 276 276 275 276 276 275 275 275 275 275 275 275 273 273
287 287 287 287 287 287 287 287 287 287 288 288 287 287 287 287 287 287 286 286 285 285 285 284 284 285 284 283 283 282 282 281 281 281 280 280 280 280 280 280 280 280 280 279 278 278 278 278 278 278 278 278 278 278 278 277 277 277 276 276 276 277 277 276 276 276 276 276 275 274 274 274 275 274 275 275 275 275 275 275 274 275 275 274 274
287 287 287 287 287 287 287 287 286 286 286 287 286 286 286 286 286 286 285 285 284 284 284 284 284 284 284 283 282 282 281 281 281 280 280 280 280 280 280 280 280 280 279 278 278 278 278 278 278 278 278 278 278 278 277 277 276 276 276 276 276 276 276 275 275 275 277 276 274 274 274 274 274 274 274 275 274 275 274 275 274 275 274 274 274
287 287 287 287 287 286 286 286 286 286 286 286 286 286 286 285 285 285 285 284 284 284 284 284 284 284 283 282 282 281 281 281 280 280 280 279 280 280 280 280 279 279 278 278 278 278 278 278 278 278 278 278 278 277 277 276 276 275 274 275 274 275 275 274 274 274 275 274 274 273 273 274 274 274 274 274 274 274 273 275 274 274 274 273 273
287 287 287 287 286 286 285 285 285 285 285 285 286 285 285 284 285 285 285 284 284 284 284 284 284 283 283 282 281 281 281 281 280 279 279 279 279 279 279 279 279 278 278 278 278 278 278 278 278 278 278 277 277 277 277 276 275 275 274 275 274 274 274 273 273 273 273 275 273 272 273 272 273 273 273 272 273 272 273 272 273 273 272 273 273
287 287 287 287 286 286 285 285 285 285 285 285 285 285 285 285 284 284 285 284 285 284 284 284 283 283 282 282 281 281 281 280 280 279 279 279 279 279 279 279 278 278 278 278 278 278 278 278 278 277 277 278 278 277 277 276 275 275 275 274 274 273 273 273 273 273 273 272 272 272 272 272 273 271 272 272 272 272 272 272 271 272 271 272 272
286 287 286 286 286 286 285 285 284 285 285 285 285 286 285 285 284 284 284 284 284 284 283 283 283 282 281 281 281 281 280 280 279 279 279 278 279 279 279 279 278 278 278 278 278 278 278 277 277 277 278 277 277 276 276 276 275 275 274 274 273 273 273 273 273 272 272 272 272 272 272 271 271 271 270 271 271 271 271 271 271 271 271 271 271
286 286 286 285 285 285 285 285 285 285 285 285 286 285 285 285 284 284 284 284 283 283 283 283 282 281 281 281 280 280 280 279 279 279 279 278 278 278 279 278 278 278 278 277 277 277 277 277 278 278 277 277 276 276 276 276 275 274 273 273 273 273 272 272 272 272 275 272 272 272 271 271 270 270 269 269 270 270 271 271 271 271 271 272 272
287 286 285 285 285 285 285 285 285 285 285 285 285 285 285 284 284 284 284 283 283 283 283 282 282 281 281 281 280 280 280 280 279 279 279 278 278 278 278 278 278 278 277 277 277 277 278 278 278 278 277 276 276 276 276 276 275 273 273 273 273 273 272 272 272 272 274 273 272 272 272 271 270 270 270 269 269 269 269 269 269 270 271 271 271
286 286 286 284 285 285 285 285 285 285 285 285 285 285 284 284 283 283 283 283 282 282 282 282 281 281 281 281 280 281 281 280 280 279 279 278 278 278 278 278 278 278 278 277 277 277 278 278 278 278 277 276 276 276 275 275 274 273 273 273 272 272 271 271 271 272 272 272 272 272 271 271 270 270 270 270 270 269 269 269 270 269 270 270 270
286 286 285 286 286 286 285 285 284 284 284 284 285 285 285 284 283 283 283 283 283 282 282 282 281 281 281 281 281 281 281 280 280 279 279 278 278 278 278 278 278 278 278 278 277 278 278 278 277 277 277 276 276 275 275 274 274 273 274 273 272 271 271 271 272 272 272 272 272 272 271 271 271 271 271 270 270 270 270 269 270 269 270 270 270
286 287 287 286 286 286 285 285 284 284 283 284 284 285 285 284 283 283 283 283 283 283 282 282 281 281 281 281 281 281 280 280 279 279 278 278 278 278 278 278 278 278 278 278 278 278 278 277 277 276 276 276 276 275 275 274 274 274 274 273 272 271 272 272 272 271 271 271 271 271 272 271 273 276 277 277 276 275 270 269 269 270 268 270 268
287 287 288 287 287 286 286 285 284 284 283 284 284 284 284 284 283 283 283 283 283 283 282 282 281 281 281 280 280 280 280 279 279 278 279 278 278 278 277 277 277 278 278 278 278 278 278 277 276 276 276 276 275 275 277 279 279 275 273 272 272 271 272 272 272 272 271 271 271 271 272 277 277 278 278 279 280 280 280 275 271 270 269 268 264
288 288 288 288 287 286 285 285 284 284 284 284 284 284 284 284 283 283 283 283 283 283 282 282 281 281 280 280 280 280 279 279 279 279 278 278 278 277 277 277 277 277 278 277 277 277 277 277 276 276 275 275 275 275 279 282 282 280 274 272 272 272 272 272 272 272 271 271 271 271 270 274 276 277 276 279 279 279 279 279 280 279 277 271 265
288 288 288 287 287 286 286 285 285 285 284 284 284 284 284 284 284 283 283 283 283 283 282 281 281 280 280 280 280 280 279 279 278 278 278 278 277 276 276 277 277 277 277 277 277 277 277 277 276 276 275 275 275 278 281 283 283 282 279 273 272 272 272 272 272 272 271 271 271 271 271 272 271 272 271 271 275 277 278 278 278 278 278 278 278
289 289 288 288 288 288 287 287 286 286 285 286 286 285 285 285 284 284 283 282 282 282 282 281 281 280 280 280 280 279 279 279 278 278 278 277 276 276 276 276 277 277 277 276 276 276 276 276 276 275 275 275 275 278 282 284 284 284 282 276 271 271 271 271 272 271 271 271 271 271 271 272 272 275 275 272 270 269 275 276 277 277 277 277 277
290 289 289 289 289 288 288 287 287 287 287 286 286 286 285 285 284 283 283 282 282 282 282 282 281 280 280 279 279 279 279 279 278 277 276 276 276 276 276 276 277 277 277 277 276 276 276 276 275 275 275 274 274 277 282 284 284 284 283 279 270 271 271 271 271 271 271 271 271 270 270 270 271 271 272 271 269 269 268 269 269 269 269 272 275
289 289 289 289 290 289 288 287 287 287 286 285 285 285 284 284 284 283 282 282 282 282 282 281 280 280 279 279 279 279 278 278 277 276 276 276 276 276 276 276 277 277 277 276 276 276 276 275 275 275 274 273 273 277 281 284 284 285 285 282 271 272 271 271 272 272 271 271 271 271 271 270 270 270 270 270 269 269 267 267 266 266 268 268 269
290 289 289 289 289 289 288 288 287 286 286 285 285 285 284 283 283 283 282 282 282 282 281 281 280 279 279 279 279 278 278 277 276 276 276 277 277 277 276 276 276 277 277 276 276 275 275 275 274 273 272 272 271 278 281 283 284 285 285 279 272 272 271 271 271 272 272 272 271 271 270 270 270 270 272 276 275 271 268 265 265 266 266 268 270
287 287 287 287 287 288 288 287 286 286 285 285 285 284 284 283 283 283 282 282 282 282 281 281 280 279 279 279 279 278 277 277 276 276 276 277 277 276 276 276 275 275 275 274 274 274 274 274 273 271 271 271 270 275 281 283 284 285 284 274 272 271 271 271 271 271 271 271 271 271 271 270 269 269 272 276 277 277 269 268 267 267 268 270 272
286 285 286 286 286 286 286 287 286 285 285 285 284 284 284 283 283 283 282 282 282 282 282 281 280 280 279 279 278 278 277 277 276 276 277 277 277 276 276 275 275 275 274 274 273 273 272 272 272 270 270 270 270 273 280 282 284 285 283 274 272 271 271 270 270 270 270 270 271 274 273 270 269 269 274 276 277 276 272 271 270 270 271 271 272
286 286 286 285 286 287 287 287 286 285 284 284 284 284 283 283 283 282 282 282 282 282 282 281 281 280 279 278 278 278 278 277 277 277 277 277 277 277 276 275 275 274 274 273 272 271 270 268 269 269 272 271 270 272 278 281 283 284 282 274 272 270 270 270 270 269 269 269 269 272 274 274 272 271 275 276 277 276 272 272 271 272 271 271 272
283 284 285 285 286 286 286 286 286 285 284 284 284 284 284 283 283 282 282 282 282 282 282 281 280 280 279 279 279 278 278 278 278 278 278 277 277 275 275 274 274 274 273 271 270 270 270 270 268 267 268 270 270 268 271 280 283 283 284 274 271 270 270 270 269 268 267 267 268 268 271 276 278 278 277 277 278 278 275 274 274 273 272 272 274
283 284 285 285 286 287 286 286 286 284 284 284 285 284 284 283 283 282 282 282 283 282 281 280 280 279 279 278 278 279 278 278 279 278 278 276 276 276 275 274 273 272 271 269 269 269 269 269 268 267 267 268 269 268 269 278 281 283 284 281 271 271 271 271 268 267 267 267 267 268 268 272 277 278 279 279 279 279 279 276 275 274 274 275 277
283 285 285 285 285 285 285 285 285 285 285 285 285 284 284 283 282 281 282 282 281 281 280 279 279 279 278 278 278 278 279 279 278 277 276 275 275 275 275 274 272 271 271 271 269 268 269 269 268 267 267 267 268 271 268 274 279 282 283 284 275 272 272 269 268 267 267 267 267 267 267 271 275 277 278 279 279 279 279 277 276 279 279 279 277
283 284 283 285 284 284 284 284 284 284 285 285 285 284 283 282 282 282 282 281 280 280 279 279 278 278 278 278 278 277 278 277 277 277 276 276 274 274 273 272 272 270 270 270 269 268 268 268 267 267 266 267 267 267 273 270 275 280 282 283 283 277 277 272 268 268 268 267 266 267 268 272 275 276 277 278 278 279 279 277 279 279 279 279 274
283 283 284 284 284 283 282 282 283 284 284 285 285 283 282 281 282 280 279 279 279 279 278 278 277 277 277 277 277 277 277 276 276 276 276 275 274 273 272 272 271 271 270 270 270 268 267 268 268 269 268 267 266 265 269 274 273 276 279 282 283 283 281 274 270 269 269 268 267 267 268 273 275 276 277 277 278 278 277 279 279 279 279 275 266
283 283 283 284 283 282 281 281 281 282 283 284 284 283 281 281 280 279 279 278 278 277 278 277 277 276 276 276 275 275 275 275 276 276 275 275 273 271 272 270 269 270 270 270 270 269 268 269 269 269 270 269 266 265 264 267 273 275 277 278 280 282 282 282 276 272 271 269 271 273 273 274 275 276 277 277 277 278 279 279 279 278 276 267 264
282 281 282 282 281 281 281 280 279 279 280 281 281 283 281 280 277 277 277 277 277 277 277 277 276 275 274 273 274 272 273 274 274 275 276 276 275 272 273 271 269 270 270 270 270 269 268 268 268 269 270 269 264 263 264 263 267 270 273 276 278 279 280 280 281 278 276 276 276 276 276 276 276 276 275 275 274 274 277 277 277 276 267 263 261
282 281 280 281 281 280 279 279 279 277 277 277 277 277 277 276 276 276 276 276 276 277 276 274 273 272 270 271 273 272 270 269 269 270 271 272 271 272 272 271 270 270 270 270 270 269 269 268 268 269 268 264 263 262 262 261 262 263 264 267 269 272 276 278 278 278 279 277 276 276 275 276 276 277 277 276 275 275 274 274 269 266 263 262 261
280 280 280 280 281 280 279 279 278 276 275 274 275 274 271 272 272 274 273 274 275 275 275 273 271 270 269 268 271 269 270 267 266 268 270 267 267 270 271 272 271 270 270 270 269 268 269 268 267 266 263 262 265 262 262 262 262 263 264 265 267 268 270 271 273 275 276 276 276 277 277 276 274 273 272 268 267 266 267 266 265 262 261 261 263
279 277 279 280 279 277 277 277 276 273 273 273 272 271 270 271 271 270 273 274 273 270 270 268 266 268 268 266 268 269 269 268 266 261 263 265 269 267 268 266 263 263 265 266 266 266 266 263 264 265 264 266 266 266 265 269 266 269 266 265 265 267 268 270 272 275 274 273 272 272 271 271 271 270 269 269 268 265 264 263 262 260 258 257 256
275 275 275 275 275 276 275 274 272 272 272 272 270 269 267 267 265 267 271 272 269 269 267 266 267 266 265 265 265 264 263 265 266 266 264 262 266 272 269 267 266 271 274 275 274 268 265 263 264 265 266 267 268 267 273 275 275 275 275 275 273 273 272 271 272 275 275 272 271 270 270 270 270 270 269 269 268 267 266 264 261 264 261 257 257
275 275 274 274 273 273 273 272 271 270 270 269 267 265 265 264 265 266 267 269 269 269 268 266 265 266 266 265 264 264 262 262 262 262 261 263 262 264 273 275 274 273 274 275 276 277 277 275 269 265 267 274 275 276 277 277 277 276 276 277 277 277 276 275 275 272 271 271 270 269 269 269 269 269 268 268 268 267 266 266 265 262 261 261 263
Wind_Speed
5 6 6 6 6 6 6 5 5 5 5 6 7 6 7 8 8 8 8 9 9 9 8 9 9 7 5 5 7 5 6 5 5 4 5 5 6 6 6 6 6 7 6 6 8 8 8 7 8 7 6 8 8 7 5 6 6 7 6 5 7 9 7 5 4 4 11 7 6 6 7 4 5 6 6 6 6 6 6 7 6 7 7 7 6
7 6 7 6 6 6 6 5 5 9 7 7 8 8 8 8 8 8 8 8 9 10 9 7 6 7 8 6 7 6 5 5 6 4 4 5 7 6 5 6 6 7 6 6 6 8 8 8 8 7 7 8 7 5 5 5 5 4 5 10 6 8 5 5 4 2 4 6 7 4 5 5 4 6 6 5 5 6 6 7 7 7 8 7 7
8 8 6 7 8 7 7 6 6 8 8 9 9 9 8 9 7 8 7 7 7 8 8 8 6 6 7 6 6 7 5 3 4 4 5 7 6 6 5 5 6 6 5 5 7 7 8 9 7 6 6 7 8 7 7 7 6 6 6 9 8 5 6 6 7 2 5 2 4 6 2 2 2 5 3 4 5 4 5 6 6 8 7 6 6
14 14 14 10 9 8 7 8 8 7 7 7 9 9 7 7 8 8 7 4 5 5 8 9 10 9 8 9 6 5 7 5 5 5 6 8 8 6 6 5 5 6 5 5 7 7 7 9 7 7 6 5 7 8 7 7 6 6 6 5 7 9 5 7 7 7 5 4 1 1 2 4 1 1 1 2 3 4 6 6 7 7 7 7 6
14 11 10 10 11 12 11 8 6 8 8 9 9 8 6 8 8 7 6 4 4 7 10 12 12 12 10 9 9 10 6 5 6 6 5 6 7 6 5 4 5 6 6 6 7 8 7 7 8 7 7 6 7 8 8 7 6 5 5 7 7 9 6 4 7 7 8 2 5 3 2 2 1 2 1 1 3 2 4 5 6 7 7 6 6
14 17 17 15 12 8 7 9 9 9 10 8 7 6 7 7 7 6 6 5 6 8 11 11 12 12 9 10 8 7 7 5 7 8 6 6 7 3 6 5 5 6 5 6 7 7 8 7 7 8 8 6 7 8 7 7 7 8 6 7 7 5 10 7 5 5 7 9 7 3 1 3 2 1 2 0 3 1 3 3 5 5 4 6 6
7 7 8 11 11 10 10 11 11 11 9 6 6 6 7 7 6 7 8 6 5 8 9 9 11 11 12 10 10 9 9 1 1 4 7 5 5 7 6 5 4 7 5 6 7 7 7 7 7 8 8 7 6 8 8 7 6 5 4 7 5 4 7 8 7 2 4 7 6 6 8 4 2 2 0 1 2 3 2 3 4 7 4 4 6
14 15 15 14 14 16 18 14 11 11 8 6 7 7 8 8 7 7 7 8 6 6 6 7 11 9 9 9 8 8 8 7 4 5 5 6 8 7 6 6 5 5 6 6 6 6 7 7 7 8 8 6 7 8 8 6 7 5 6 6 6 6 7 9 5 3 7 1 3 6 5 5 5 6 2 1 1 1 5 4 1 8 9 6 4
15 15 16 17 18 16 12 12 9 7 8 9 8 7 7 7 7 7 8 7 7 6 7 4 8 10 10 10 9 5 8 8 5 5 6 6 9 6 7 6 5 4 5 6 5 6 6 8 7 8 8 7 7 7 6 6 7 7 7 8 8 7 6 5 7 4 5 3 3 4 5 5 5 4 3 3 2 0 4 1 4 5 6 5 8
10 13 14 14 13 12 9 7 7 8 6 5 5 7 7 7 8 9 8 7 7 7 5 6 7 10 11 11 13 9 8 8 6 7 7 6 9 7 6 6 5 6 5 5 6 5 6 6 7 8 8 7 7 8 7 8 7 7 7 7 7 9 5 7 8 5 6 3 3 3 4 1 2 2 4 4 3 1 2 3 2 3 4 6 6
11 10 10 10 7 9 9 12 10 7 6 6 7 8 7 8 8 10 9 8 8 9 8 8 7 9 11 12 14 13 10 11 10 9 8 7 9 7 7 6 5 6 6 5 5 5 6 5 7 7 6 7 7 7 7 8 7 8 7 7 7 8 7 8 7 5 5 5 4 5 4 3 3 1 1 1 1 0 2 3 2 1 3 5 4
8 9 9 10 8 8 8 10 10 9 7 8 8 8 8 8 9 10 8 9 8 8 9 9 8 7 10 13 14 13 12 11 12 13 11 11 10 10 7 7 6 6 5 6 5 4 6 6 6 6 7 7 7 6 6 7 7 6 6 7 7 7 6 7 6 7 6 6 4 4 4 4 5 5 3 4 4 2 3 3 3 2 3 3 5
10 10 10 10 13 13 13 11 10 11 11 10 9 9 9 9 10 12 10 8 9 8 9 9 8 9 10 12 13 12 11 10 11 12 10 11 10 10 9 9 7 7 5 7 4 5 6 7 7 7 6 6 7 7 6 6 7 7 7 7 7 7 6 7 7 5 5 6 6 3 5 4 4 2 4 5 2 4 4 0 2 0 3 4 3
11 11 11 12 12 12 12 12 12 10 10 11 9 10 9 9 9 11 11 9 8 8 9 10 9 9 9 11 11 11 11 10 9 11 10 9 9 11 10 10 9 9 8 7 7 5 4 5 6 6 5 6 6 7 6 5 6 7 7 8 7 6 6 7 7 5 5 4 4 5 3 5 3 3 3 5 4 4 2 1 1 2 2 5 3
9 10 12 13 12 12 13 13 12 11 11 10 9 10 9 10 10 11 11 9 9 9 9 10 10 10 9 9 10 8 9 8 8 8 10 10 8 9 8 7 8 7 8 6 5 5 5 6 5 7 6 6 6 7 6 6 6 6 6 7 6 5 6 7 5 6 6 4 4 5 5 3 3 3 4 4 4 3 4 2 2 3 5 1 2
9 9 9 10 10 11 10 10 11 10 11 10 10 10 10 10 10 10 12 10 10 10 9 10 10 10 9 10 10 9 7 7 6 6 5 7 9 9 9 7 7 7 5 6 4 6 7 7 5 6 5 6 6 6 6 6 6 7 6 6 6 3 6 6 4 5 5 4 4 2 4 3 2 3 4 5 4 3 3 3 3 1 0 4 3
9 10 10 10 8 9 10 11 10 10 11 12 12 11 11 10 10 10 9 9 11 11 11 10 10 11 10 9 9 8 9 10 10 9 8 6 6 7 8 7 6 6 7 5 6 4 6 6 7 6 5 5 5 5 5 5 5 6 7 6 6 5 6 5 4 5 3 3 3 3 3 3 3 3 3 4 4 3 3 3 3 4 3 1 2
7 6 6 9 10 11 10 9 10 11 12 11 10 8 9 10 11 12 10 12 10 11 11 10 11 11 11 10 9 10 10 9 8 10 8 8 7 6 6 7 7 6 6 6 6 6 6 6 7 6 5 4 5 5 5 5 6 5 5 5 5 5 6 4 4 4 4 3 3 2 2 3 1 3 4 3 3 3 3 2 2 1 3 5 4
7 9 9 10 10 10 10 10 8 8 7 7 7 8 7 7 9 11 13 11 11 9 9 8 10 9 10 11 10 9 8 8 7 7 7 9 9 8 8 8 7 6 7 7 7 7 7 6 6 6 5 5 4 5 5 5 5 6 4 5 4 5 6 5 3 4 3 4 3 3 1 2 1 3 3 3 3 3 2 2 1 2 1 3 4
9 10 10 10 10 11 11 11 11 10 9 8 8 7 9 9 9 8 7 8 8 10 10 12 10 10 10 9 8 8 8 8 8 9 9 9 9 9 9 8 9 7 6 7 7 7 7 8 6 7 6 5 6 5 5 5 4 4 5 6 5 6 6 6 3 2 3 3 4 3 2 2 1 3 3 3 3 1 2 2 1 1 1 1 2
10 10 10 9 9 8 8 8 8 7 7 8 9 11 10 9 10 10 12 11 12 11 11 11 10 10 12 12 11 9 9 8 8 8 9 8 8 8 8 8 7 7 7 8 7 8 8 8 8 7 7 7 6 5 4 5 4 4 3 4 4 5 7 5 5 4 3 4 3 3 2 1 1 3 3 3 2 1 1 1 1 2 2 1 2
9 9 8 9 8 8 8 8 8 10 10 12 11 10 10 11 11 11 11 12 13 12 12 11 10 10 12 12 11 8 9 9 9 9 9 9 9 9 8 8 8 7 7 8 8 7 7 8 7 7 6 5 5 5 6 6 6 5 4 3 5 5 5 5 4 5 3 3 3 3 1 2 1 3 3 2 3 2 1 2 1 3 1 0 1
9 8 9 9 10 10 11 12 13 14 13 13 12 12 12 12 12 12 13 13 12 12 10 10 11 11 12 10 10 10 10 10 11 9 9 9 9 8 8 10 9 8 6 7 8 8 8 7 7 6 6 6 6 6 6 6 6 6 7 5 5 5 6 6 5 4 4 3 3 3 2 2 2 2 2 2 3 2 3 3 2 2 2 2 2
5 6 7 8 8 8 9 12 12 12 12 14 13 12 12 12 12 11 14 13 10 10 10 11 10 11 10 10 11 10 11 11 11 9 11 9 9 8 8 8 8 8 9 6 6 7 7 7 7 7 6 7 7 6 6 6 7 6 6 6 5 4 4 4 5 4 4 3 4 3 2 3 3 3 2 3 2 3 3 3 3 3 3 3 2
8 10 9 8 9 12 13 12 12 12 11 13 13 14 13 12 11 12 11 11 10 9 10 11 11 12 11 12 11 11 12 12 11 10 11 10 9 9 8 9 9 8 7 7 6 6 7 8 9 9 8 8 8 7 8 7 6 5 6 6 5 5 4 4 4 4 4 4 3 4 3 3 3 3 3 3 3 3 3 3 3 3 4 3 2
10 9 10 13 12 9 9 11 11 12 13 12 12 12 11 11 11 9 11 10 11 10 11 12 12 13 12 13 13 12 13 13 12 11 11 11 10 10 10 8 9 10 8 8 9 8 8 9 8 8 8 8 7 7 8 8 8 6 5 5 5 5 4 4 4 4 4 4 4 4 3 4 4 4 4 3 3 4 3 4 4 4 4 3 3
9 9 8 6 9 16 14 12 12 11 10 11 11 11 11 11 11 10 10 11 11 11 11 12 12 13 12 13 13 13 13 12 12 11 10 10 10 10 10 11 9 10 10 10 8 9 7 8 8 8 8 8 8 7 7 7 7 6 6 6 5 4 4 4 4 4 4 3 3 3 3 3 4 4 4 4 4 4 4 5 5 5 4 4 4
6 8 12 16 15 12 13 14 11 11 10 10 11 12 13 13 13 12 11 11 10 12 12 12 13 13 13 14 13 11 11 11 10 10 10 10 10 10 10 9 9 10 10 11 11 10 8 7 8 8 7 7 7 7 7 7 7 7 7 6 6 5 5 4 4 4 4 3 3 3 3 3 4 4 4 4 4 5 4 4 5 4 4 4 4
10 14 14 13 13 15 15 13 14 11 13 13 11 12 11 10 10 10 10 12 11 12 12 12 12 14 14 12 11 10 9 10 10 10 10 11 11 10 9 9 9 9 8 9 8 9 9 8 7 7 7 6 8 8 7 8 8 7 7 7 7 6 6 5 4 4 3 3 3 3 3 3 3 5 8 8 8 7 5 5 4 4 4 5 4
14 16 16 15 15 12 13 13 12 15 15 14 13 13 13 13 13 12 12 11 11 13 13 13 14 14 11 11 11 10 10 10 11 12 12 11 10 10 10 10 10 9 8 8 8 8 8 9 9 8 7 7 8 6 8 13 11 9 8 6 6 6 6 5 6 5 4 3 4 3 3 6 7 8 9 10 10 10 9 7 6 6 5 5 4
14 13 13 14 13 12 10 12 15 17 18 16 15 14 13 12 12 13 13 13 12 13 13 12 13 10 10 10 10 11 11 12 11 10 9 11 11 9 9 9 9 9 9 8 8 9 9 8 9 9 9 8 7 7 12 15 14 13 8 7 7 6 6 6 5 6 6 5 3 3 3 4 5 6 6 10 10 10 10 11 10 8 7 7 5
14 15 13 11 13 15 16 18 18 18 17 16 15 14 13 15 14 13 12 11 12 12 12 11 10 9 10 12 11 11 11 11 10 11 10 9 8 8 9 9 9 9 8 7 9 10 9 8 7 8 9 9 8 9 15 15 15 15 11 8 6 6 6 6 6 6 5 5 5 5 4 3 4 4 5 5 7 10 11 10 10 10 10 11 9
15 14 14 15 16 18 20 19 16 15 16 17 15 13 16 14 13 11 9 11 12 11 11 10 9 10 10 11 11 12 11 10 10 10 9 8 9 9 9 9 11 9 7 9 10 9 10 8 9 10 10 9 8 11 15 16 16 15 15 10 6 6 7 6 6 6 6 5 5 5 4 4 4 9 8 5 4 4 7 9 10 11 11 11 10
11 11 12 14 12 10 11 12 11 11 12 10 11 12 9 7 8 8 10 10 11 10 10 10 9 9 9 10 10 10 10 10 9 8 8 9 10 12 10 8 7 7 9 8 8 10 9 9 10 10 9 8 8 10 15 16 15 16 16 12 6 6 6 6 6 6 5 6 6 6 6 6 5 5 5 6 4 4 4 4 4 4 4 6 10
11 11 12 13 13 12 10 10 12 11 9 10 9 8 8 9 9 9 8 9 9 9 8 8 9 8 9 8 11 10 10 9 9 9 9 10 11 9 9 9 9 10 11 12 11 10 10 9 9 8 8 8 8 12 15 16 16 16 17 12 6 5 6 6 6 6 6 7 7 7 6 7 6 6 6 7 6 6 5 5 5 5 5 5 6
11 11 10 9 9 11 11 9 7 11 11 11 11 9 10 10 9 11 9 9 9 9 9 8 9 9 11 11 11 10 10 8 9 9 10 11 11 11 11 9 8 7 6 5 6 6 8 9 8 7 7 10 8 14 16 16 17 16 17 8 7 7 7 6 6 7 7 7 7 7 7 7 7 7 9 14 12 7 6 6 7 5 5 5 6
5 6 6 7 7 8 9 9 9 10 11 10 10 10 10 10 10 9 10 10 10 11 12 12 11 10 11 11 12 11 10 9 9 10 11 12 11 10 8 6 8 8 9 9 10 9 8 9 8 9 10 10 7 12 16 17 17 18 12 6 7 6 7 8 8 7 7 7 7 7 7 7 7 8 10 14 15 13 5 7 7 6 6 6 7
5 5 6 6 7 8 9 11 10 10 10 10 11 12 11 11 11 10 10 10 10 12 12 11 11 11 12 11 10 10 10 10 10 12 13 11 8 6 8 8 11 11 11 11 9 7 7 7 9 10 11 10 10 11 16 17 17 18 13 8 7 7 7 8 8 7 6 7 7 13 10 8 8 9 12 15 16 11 7 6 6 6 8 8 7
7 9 8 7 8 10 10 11 12 11 9 10 12 12 11 10 10 10 10 11 12 13 12 13 13 10 9 9 9 9 10 10 11 12 10 10 10 11 8 7 8 7 8 6 6 7 7 6 7 9 7 10 9 9 15 17 18 19 13 7 8 7 8 9 8 8 6 6 7 10 16 13 11 11 16 16 17 12 7 6 6 7 10 10 7
3 3 6 8 9 10 9 11 12 11 10 12 12 11 11 11 10 9 10 13 15 14 12 10 8 8 9 8 8 9 10 10 11 9 8 9 7 6 7 8 8 7 7 6 6 7 8 8 7 7 8 10 10 8 9 18 18 19 18 9 7 8 10 11 9 8 7 7 8 8 11 19 21 19 17 18 17 17 10 7 8 9 9 10 4
5 6 8 8 7 8 9 9 8 10 10 10 10 10 10 9 10 10 13 15 10 8 8 8 7 7 7 8 7 9 11 9 9 9 9 6 7 8 7 8 8 7 6 6 7 7 8 8 7 8 8 9 9 9 10 17 18 19 20 15 9 11 11 9 8 8 8 9 8 8 7 13 19 20 20 20 19 18 16 10 9 9 8 8 9
5 7 8 8 7 8 8 8 7 9 10 10 10 11 9 9 9 12 14 6 7 8 7 7 8 8 8 8 8 7 8 8 7 6 7 7 6 6 7 8 6 7 8 8 7 6 8 8 7 7 8 10 8 11 8 13 19 20 20 21 11 12 10 8 8 8 8 8 9 6 7 11 18 19 19 19 19 18 19 11 11 16 17 17 8
6 7 4 8 8 8 7 7 6 7 8 9 10 10 9 8 11 12 5 6 6 7 7 7 7 7 7 8 7 8 8 6 7 8 8 8 7 7 6 7 7 7 8 9 8 8 7 8 7 8 8 9 9 8 14 11 16 20 21 21 20 11 13 8 9 11 10 9 5 6 6 12 16 18 18 19 18 19 16 12 17 18 16 17 3
5 4 5 6 8 7 8 5 5 5 6 7 9 9 8 9 10 3 5 5 6 6 6 6 6 6 6 7 7 7 7 6 8 8 8 8 7 7 7 7 8 8 8 8 8 7 7 8 10 10 9 9 7 7 10 15 12 17 19 20 22 23 19 10 9 10 8 6 6 6 6 13 16 17 19 18 17 16 12 16 17 18 16 5 4
6 6 4 5 9 10 8 7 4 5 5 6 6 10 9 8 4 5 5 6 6 6 6 6 6 6 6 6 5 6 7 6 6 8 8 7 6 6 8 6 7 7 7 9 9 7 9 10 9 10 11 8 6 6 6 8 14 15 17 19 20 23 23 22 12 9 8 6 8 11 13 15 16 18 19 18 15 16 18 19 19 15 8 5 3
6 6 5 6 8 8 9 9 5 4 5 4 4 7 10 5 4 5 5 6 7 7 6 6 5 5 5 5 6 5 5 5 6 6 8 7 9 9 9 7 7 8 8 9 9 7 9 8 9 10 10 6 2 4 5 4 6 9 11 16 18 19 20 22 22 12 13 16 16 16 18 18 17 15 11 8 7 8 16 17 15 10 4 4 3
7 6 8 8 9 9 9 9 8 4 5 4 5 5 4 4 5 5 5 6 6 6 5 5 5 5 4 5 6 6 5 4 5 4 5 6 6 6 7 7 8 8 8 9 9 8 8 8 9 9 5 3 3 2 3 3 3 5 6 7 8 11 16 18 14 12 13 10 13 14 11 14 13 17 16 15 14 12 10 10 3 2 3 4 5
4 6 6 7 8 10 9 8 8 5 4 5 5 5 4 4 4 4 5 5 6 6 7 6 6 5 6 5 6 6 7 5 5 5 6 4 4 6 7 9 9 9 8 8 7 7 7 7 7 6 4 5 7 5 5 5 6 7 8 8 8 8 8 7 9 8 6 7 6 8 12 8 7 7 7 2 1 1 4 5 5 4 4 4 4
7 4 5 7 7 7 6 7 6 4 5 5 5 4 4 5 4 4 5 6 6 4 4 5 5 5 5 4 6 6 6 7 6 4 3 3 6 6 6 3 1 5 5 6 6 6 7 5 6 7 7 8 8 8 6 8 10 11 10 8 8 9 8 8 11 11 6 3 3 5 6 6 6 7 6 6 4 4 4 4 4 4 2 2 2
4 5 6 6 6 7 7 7 5 4 5 6 5 4 4 4 3 2 4 6 5 5 4 4 4 4 3 4 3 3 3 4 5 5 3 1 3 3 4 5 4 3 6 9 7 7 4 5 6 6 6 8 9 6 6 11 14 15 17 18 16 15 14 11 11 16 11 8 8 7 8 9 9 8 9 9 8 7 6 6 5 5 5 4 4
5 7 6 6 6 6 7 7 5 4 5 5 6 4 5 6 5 3 2 5 5 5 3 3 3 3 3 3 3 4 2 3 2 3 2 3 1 1 1 4 5 5 6 6 8 9 9 9 8 5 6 12 14 14 14 14 14 13 15 16 18 18 18 17 16 10 10 10 9 9 9 8 9 9 10 10 8 8 8 7 7 6 5 5 5
Wind_Direction
166 177 181 178 182 181 178 178 177 170 181 166 160 168 167 157 154 154 157 151 144 141 138 131 129 116 91 91 104 87 88 84 75 59 65 70 74 73 73 79 83 84 84 94 98 96 92 93 91 80 82 86 87 87 91 88 78 86 93 62 83 85 47 20 19 75 104 75 64 69 59 49 71 69 62 51 47 40 37 45 31 39 25 21 8
149 175 191 181 182 186 179 184 179 173 188 173 170 174 172 164 162 156 163 164 156 149 142 136 135 140 134 128 115 103 100 101 99 73 82 75 70 70 71 76 81 83 86 93 93 100 102 93 89 93 92 89 90 95 84 77 74 67 92 75 39 81 63 10 341 61 43 123 118 82 63 52 51 57 54 39 44 39 39 42 28 36 24 12 1
177 185 180 186 185 187 184 190 197 185 177 178 173 169 173 170 167 161 169 171 162 149 139 128 108 101 121 126 116 100 47 58 85 101 90 84 70 65 66 72 84 82 83 90 97 94 99 99 96 98 92 106 98 82 78 70 65 72 65 103 95 63 84 34 21 39 131 118 98 92 128 75 2 7 2 30 31 41 44 42 35 35 20 13 6
187 185 187 183 182 186 187 193 195 184 176 183 175 170 171 172 166 164 168 163 149 134 117 109 106 97 82 99 86 89 124 103 88 86 87 85 72 64 57 70 78 88 83 91 94 92 98 100 103 93 88 85 101 96 80 73 67 62 72 65 99 82 52 39 27 40 87 116 74 109 185 117 71 328 344 293 359 37 41 42 36 27 15 9 10
182 178 181 182 186 192 191 185 188 189 184 185 177 172 168 170 160 156 145 144 132 128 120 120 113 101 99 90 100 95 73 98 98 69 72 87 90 65 59 63 79 86 84 90 98 100 95 100 100 99 97 89 93 92 85 84 78 82 87 87 73 117 95 99 39 44 55 43 144 95 28 39 182 238 48 282 332 26 7 42 37 31 12 6 7
184 185 185 185 183 176 183 188 192 191 187 189 175 163 157 160 150 144 130 128 143 135 135 139 130 129 131 129 127 120 124 139 135 135 126 111 105 106 69 62 81 84 86 92 93 98 97 98 103 104 100 99 93 95 100 86 70 70 54 91 86 71 119 96 82 37 60 47 53 89 147 164 186 271 88 285 323 99 1 50 49 19 16 5 357
178 180 176 179 187 182 190 194 193 189 189 174 168 160 155 151 149 148 143 139 151 146 153 141 131 138 141 137 137 142 135 64 60 106 120 110 106 95 89 69 68 94 85 89 91 93 98 99 102 101 101 98 97 96 88 88 85 79 73 76 81 104 93 90 91 82 45 45 43 59 62 52 101 119 165 88 358 319 16 18 353 356 17 21 357
181 186 186 188 186 186 189 190 188 192 176 170 170 162 158 155 150 149 140 146 157 155 163 158 135 135 126 124 128 133 135 139 153 128 113 121 105 99 96 81 72 79 98 90 96 102 108 105 104 101 97 95 98 95 103 109 100 79 79 88 79 69 89 108 92 44 104 48 22 63 62 54 53 65 79 137 145 207 307 335 333 4 348 351 348
182 181 187 188 189 193 187 185 186 174 177 177 173 163 154 152 149 140 145 150 157 164 158 165 139 137 132 129 119 116 127 132 147 130 121 123 108 100 97 96 88 79 88 101 100 105 104 110 107 104 103 103 102 101 97 98 98 104 94 82 85 73 77 103 98 91 85 133 102 46 57 60 61 69 49 64 123 119 291 245 298 332 342 331 345
192 194 187 188 188 186 180 159 165 185 171 165 157 152 156 153 151 148 151 156 159 159 155 140 139 134 134 136 131 136 137 134 148 137 131 129 115 116 113 113 113 99 84 86 93 91 101 103 105 107 110 111 104 110 108 98 95 92 95 102 100 91 74 83 100 106 92 89 90 143 95 53 33 13 35 48 32 93 191 277 318 360 341 301 324
188 186 187 186 180 173 162 173 176 165 168 163 161 163 159 158 157 156 160 158 162 159 152 148 148 146 139 141 140 145 153 149 148 144 137 132 128 130 129 123 112 103 95 82 86 98 97 101 109 108 108 110 112 112 112 112 110 106 105 96 92 103 99 99 90 83 93 80 68 85 107 124 157 138 197 71 124 185 23 305 312 287 256 298 289
177 174 177 170 164 173 169 174 174 171 164 169 168 164 163 162 161 157 162 164 161 159 151 152 151 149 142 143 146 151 159 160 157 150 152 144 141 136 134 118 107 100 101 104 101 107 113 107 107 109 110 114 110 115 115 115 116 111 104 100 99 95 101 98 102 101 96 91 77 85 99 103 86 119 169 147 136 189 153 238 271 297 309 242 279
178 181 172 176 180 177 181 178 171 176 177 171 172 169 165 164 166 160 168 168 162 158 158 155 151 150 150 149 150 154 161 165 158 151 155 147 146 140 142 134 133 123 137 126 140 138 130 123 123 122 118 115 122 115 116 117 114 108 107 104 108 112 117 116 111 120 124 119 125 100 107 95 113 135 122 133 120 127 137 152 275 207 235 292 286
184 180 182 183 182 182 181 176 180 178 175 171 170 171 170 168 168 165 166 166 160 159 160 155 155 151 153 153 153 158 162 166 165 154 156 149 150 149 149 147 149 149 151 151 157 146 127 125 122 114 115 119 117 116 116 115 114 111 113 111 110 118 112 107 112 119 107 116 126 120 109 112 130 139 133 119 135 117 104 135 240 301 214 264 289
182 184 187 185 184 179 179 179 180 180 177 172 171 175 170 170 169 167 162 169 161 164 160 159 155 153 154 156 156 160 160 163 163 159 152 148 150 142 139 141 142 150 152 152 150 140 132 121 122 120 125 122 120 116 113 110 110 108 106 111 108 116 108 109 114 116 113 114 100 118 123 98 118 147 129 114 120 124 146 170 120 4 338 279 282
188 188 186 188 182 178 179 181 180 178 179 176 174 174 174 174 172 169 167 166 163 163 168 162 158 154 156 160 162 156 154 149 143 144 145 146 148 146 144 143 141 139 142 143 150 141 136 128 121 121 123 121 118 120 123 121 123 115 111 113 114 122 110 104 112 102 107 111 118 123 86 90 111 117 106 119 113 142 143 143 127 128 180 313 310
190 192 188 181 177 186 185 180 178 178 180 182 179 178 175 170 171 169 169 167 166 171 166 164 157 156 163 161 158 158 160 161 160 156 151 143 138 138 139 141 136 143 145 146 140 136 132 133 128 127 125 123 121 122 123 122 119 115 122 123 120 118 108 114 112 105 115 103 86 97 118 113 106 105 85 90 103 96 107 139 162 157 163 152 295
194 189 185 186 186 183 183 184 182 183 182 180 179 174 177 175 175 171 170 172 175 168 165 164 161 161 162 166 167 166 164 162 157 154 149 140 136 130 130 139 155 154 146 142 137 139 135 133 128 128 128 126 128 127 120 118 114 112 124 127 135 126 118 111 118 125 136 120 121 87 116 110 126 97 114 116 100 110 105 120 143 170 153 166 204
188 192 187 187 186 186 183 182 180 180 181 180 170 171 174 179 181 176 175 176 170 167 161 162 164 164 168 169 168 166 162 155 150 148 146 148 149 151 153 148 139 146 144 145 146 144 139 133 132 134 136 138 133 126 119 113 117 127 135 137 141 135 131 132 147 134 156 124 134 117 110 107 129 120 118 110 111 114 126 137 153 132 161 156 180
196 196 194 188 187 185 181 177 176 176 174 177 174 174 181 181 178 178 169 162 163 167 167 168 173 164 164 160 166 163 158 155 155 154 156 157 156 154 151 151 158 150 152 153 151 149 144 140 145 145 146 147 140 130 126 128 128 142 148 141 150 137 134 139 145 136 146 139 135 132 144 117 114 101 102 100 101 98 132 128 147 140 126 159 141
201 197 190 185 184 181 178 174 171 168 173 174 179 184 185 179 181 176 171 174 174 174 171 171 165 169 163 169 167 163 160 153 153 160 155 156 157 155 158 153 142 159 158 159 156 150 147 148 150 155 154 154 146 144 146 147 141 147 148 144 140 138 135 141 135 132 134 136 136 129 142 139 139 112 129 127 111 118 104 88 120 107 106 143 139
201 194 182 182 180 178 173 169 170 170 178 182 184 181 185 185 183 179 178 179 176 175 176 169 170 165 170 166 163 159 154 155 157 158 158 160 162 160 155 150 161 163 166 162 156 152 150 153 153 155 154 149 151 155 159 154 153 150 155 156 146 140 139 146 141 143 142 139 134 126 146 123 163 131 147 151 158 140 135 103 134 130 154 222 250
199 188 184 183 182 179 178 177 180 184 184 182 183 188 188 187 184 185 181 186 180 176 172 165 164 166 169 164 158 160 158 160 160 163 164 165 162 157 159 161 165 164 171 164 159 155 156 154 152 155 155 160 163 166 167 157 160 162 163 164 160 153 152 156 156 157 152 140 131 142 178 152 149 129 166 170 164 162 166 157 189 184 177 217 220
190 186 182 182 178 174 177 187 186 187 185 186 187 188 189 190 189 182 188 180 177 172 167 166 164 165 162 159 164 160 160 163 166 169 168 167 162 162 164 166 165 164 165 166 159 158 155 159 158 161 166 167 168 171 168 168 166 167 167 164 162 160 158 161 158 159 156 157 167 164 200 175 165 153 176 173 195 171 175 182 188 209 181 198 200
188 187 183 174 179 186 192 190 189 189 189 189 190 190 187 190 188 186 185 178 172 169 168 168 165 161 164 166 168 166 167 169 170 171 171 166 166 163 168 170 164 168 167 157 164 163 163 165 170 172 172 175 178 172 169 173 171 171 169 163 163 160 162 162 162 163 167 169 174 179 199 181 171 172 203 193 195 196 202 185 197 203 189 191 188
190 184 179 192 191 187 193 197 193 194 192 190 191 189 187 188 190 184 179 175 177 172 175 168 168 166 170 173 172 171 174 174 172 171 171 169 167 170 171 174 172 167 166 171 168 174 175 177 175 176 177 176 174 177 179 178 171 167 166 164 161 162 164 162 165 169 169 176 177 195 200 188 187 185 214 217 200 209 203 200 204 209 196 186 196
191 188 185 170 188 199 198 195 198 194 191 189 188 187 186 186 187 187 183 177 176 176 175 173 173 172 172 178 176 178 175 174 174 172 167 169 172 174 174 175 176 169 169 172 177 176 183 180 178 175 179 179 178 180 183 178 169 166 165 163 166 166 169 167 172 175 181 181 184 192 200 192 196 203 203 209 215 219 201 220 212 208 206 191 216
177 184 192 201 203 194 193 196 191 193 188 186 188 188 187 187 188 185 180 179 178 178 178 178 175 176 180 182 180 176 175 175 171 167 170 172 173 177 180 172 167 173 176 179 178 181 181 178 179 180 180 176 180 183 188 181 172 170 167 170 170 173 173 178 177 181 177 179 185 192 194 202 198 211 204 220 206 217 212 221 228 199 206 204 217
191 205 206 203 199 201 195 188 190 181 187 189 186 189 187 187 186 184 180 187 179 177 180 181 182 184 186 179 172 173 172 169 167 167 171 176 180 179 174 172 175 178 181 181 179 177 174 177 178 181 180 183 190 194 188 181 173 175 174 173 177 178 177 178 180 181 182 178 191 195 204 208 214 223 230 227 217 213 200 221 238 197 212 210 220
209 210 207 207 207 199 195 188 182 187 187 188 189 189 189 186 187 184 183 184 175 187 183 185 189 190 179 171 171 169 170 167 169 175 178 177 177 176 175 175 180 180 178 178 177 179 182 182 179 183 186 190 201 202 201 189 181 174 175 174 173 181 180 181 181 189 195 197 200 205 217 228 241 250 252 250 249 246 237 202 201 196 206 202 207
220 216 212 208 202 197 188 190 195 192 190 189 190 189 187 188 185 184 187 182 180 185 190 189 193 185 172 165 167 174 170 176 178 172 174 177 178 176 175 177 179 180 180 178 176 180 187 188 187 185 189 198 203 208 203 193 187 180 168 172 177 183 182 182 191 189 200 202 211 213 218 238 248 259 259 254 249 249 252 256 251 231 203 182 191
221 218 211 203 198 195 195 198 197 195 190 187 187 186 183 193 187 185 182 172 182 188 188 191 190 176 171 172 174 170 173 177 173 180 178 177 170 171 178 180 179 182 183 170 183 191 189 190 187 192 199 203 208 208 203 198 191 186 176 176 175 178 183 192 194 199 198 194 204 213 225 214 230 235 238 253 258 257 254 252 254 256 259 259 243
221 216 209 205 203 200 200 200 196 193 191 193 184 177 192 189 180 179 162 174 185 186 186 187 186 183 177 173 171 173 176 175 182 179 171 166 172 177 181 182 190 185 167 182 192 185 195 192 191 195 204 206 213 212 206 202 196 192 186 173 181 179 184 197 198 199 196 198 201 209 221 225 223 238 243 236 219 242 257 257 260 265 268 262 257
228 220 213 212 207 206 204 202 200 198 194 181 180 185 175 157 156 151 168 174 181 187 187 188 183 185 176 173 173 172 178 182 177 170 168 173 177 188 189 186 176 171 184 188 190 195 195 196 197 200 204 205 211 216 210 205 200 197 193 179 181 185 192 196 200 198 199 202 206 204 208 231 228 225 232 230 225 224 229 246 259 262 259 261 260
225 219 213 207 200 196 186 184 186 176 165 157 166 162 146 143 149 157 166 171 182 181 185 185 186 182 172 173 176 179 182 180 175 171 173 180 186 188 184 186 182 185 185 192 193 195 200 198 201 199 201 208 216 214 214 208 204 200 200 180 177 184 193 203 206 201 202 208 212 210 206 220 225 226 221 218 221 231 227 232 237 244 239 240 240
227 218 215 197 190 188 185 180 146 148 160 164 164 153 152 158 154 162 165 173 176 183 188 184 189 185 183 181 178 182 182 176 173 174 179 188 191 191 189 184 181 190 197 189 203 201 200 201 200 194 201 218 221 214 216 212 207 203 203 176 176 187 196 205 209 209 207 212 212 211 213 220 224 229 229 233 232 216 214 224 235 237 242 243 238
212 176 181 169 163 158 150 139 148 155 155 162 150 149 149 147 158 167 167 174 180 189 194 194 193 188 187 185 183 180 181 178 176 180 190 194 192 191 190 173 183 192 191 196 201 200 200 198 196 197 204 219 220 218 215 214 209 206 202 173 182 187 200 206 217 212 213 210 214 213 214 215 221 232 232 237 242 242 219 220 226 233 234 237 242
164 148 144 141 138 129 137 142 145 151 154 148 148 150 151 155 164 166 170 180 187 199 196 191 195 193 190 184 182 178 179 182 181 191 195 196 193 191 190 180 187 191 197 203 198 198 200 199 199 206 206 210 221 216 215 215 212 208 200 187 188 192 206 214 223 222 209 219 219 221 214 214 222 231 234 240 242 238 235 229 227 242 251 249 251
164 156 146 141 141 139 138 136 142 150 152 145 146 146 148 160 164 170 175 184 197 202 194 196 199 189 182 180 180 180 183 183 191 197 193 191 192 194 188 179 198 193 206 192 186 198 208 211 213 214 210 215 227 220 218 218 214 211 205 182 187 194 209 222 220 225 218 216 231 228 226 223 225 233 237 239 237 232 226 223 227 242 250 249 243
90 90 123 124 122 115 128 143 153 151 142 142 141 147 156 163 173 167 182 199 205 200 197 195 184 177 176 177 179 182 187 188 196 195 191 199 187 168 175 183 196 197 196 189 193 201 209 219 210 213 220 220 223 227 221 222 218 215 210 184 188 187 217 223 218 218 217 232 226 229 232 234 236 236 233 234 234 231 224 221 226 236 243 250 239
116 118 116 118 126 136 145 145 135 133 136 137 139 145 163 168 166 176 201 209 198 183 185 181 171 169 173 178 181 185 189 196 194 194 189 183 178 185 177 182 192 191 188 194 198 207 214 225 211 217 221 230 222 225 226 223 224 219 217 197 195 208 218 218 217 216 221 226 228 224 220 230 235 238 239 236 235 235 234 231 227 228 235 253 255
91 109 116 112 105 100 96 90 108 130 135 142 146 157 162 163 169 197 211 180 167 176 167 163 169 173 176 177 182 189 191 193 186 169 175 189 192 182 184 187 182 182 196 207 206 210 217 229 225 221 224 231 227 224 223 227 228 227 223 216 200 218 212 206 218 227 228 230 229 218 221 224 231 238 239 240 240 241 242 239 240 245 252 256 258
104 91 79 110 109 109 114 119 125 132 136 143 149 155 161 163 188 206 169 160 164 158 161 163 166 167 173 180 184 185 188 182 183 183 182 192 179 181 183 174 180 188 199 210 214 212 217 233 237 234 232 232 230 231 227 225 231 233 231 229 225 217 214 206 213 233 229 232 220 224 225 225 231 235 239 241 244 243 244 243 246 249 251 253 219
55 76 100 101 102 104 103 99 107 121 135 143 149 148 157 177 199 145 145 141 145 147 147 154 164 173 175 184 187 189 188 183 183 179 185 185 183 185 181 186 185 188 197 212 222 208 215 232 235 242 236 233 228 223 236 235 234 239 244 241 241 239 230 214 211 234 236 221 222 220 212 225 233 237 240 243 244 242 237 244 246 249 245 227 109
105 103 99 105 123 120 111 101 94 114 124 140 148 150 169 178 177 142 140 143 138 139 144 161 171 177 184 183 176 184 187 187 182 175 182 189 186 172 188 196 179 198 202 213 221 199 213 226 234 240 244 235 216 218 233 243 245 245 245 249 249 248 246 241 229 229 221 218 220 223 223 231 237 239 241 243 246 246 245 245 248 239 229 108 162
106 106 102 111 106 112 118 119 96 104 119 123 139 155 160 174 149 130 137 130 136 137 157 170 169 170 172 156 173 186 185 186 181 188 194 191 185 184 194 186 187 205 207 213 220 204 218 224 233 243 245 248 197 203 228 226 240 262 262 257 257 259 255 252 251 240 220 220 221 224 229 235 237 238 238 234 231 234 245 248 238 226 119 160 132
140 137 126 121 125 124 131 134 137 139 128 113 108 85 111 133 133 137 131 134 137 147 147 149 157 154 146 159 173 181 180 180 186 192 198 191 182 186 190 190 194 204 211 216 222 214 222 226 235 246 271 310 260 225 218 209 212 230 250 262 267 263 258 255 252 253 249 226 221 220 221 228 230 233 234 232 230 229 232 234 202 112 154 163 177
125 138 133 127 133 137 141 143 142 138 108 103 92 84 78 89 106 114 125 124 137 152 158 164 161 156 162 163 172 166 168 182 192 180 194 201 199 183 192 204 200 206 204 222 218 222 228 230 245 268 286 289 270 243 221 205 212 216 228 233 241 248 247 244 252 251 249 246 236 231 231 235 234 246 250 312 326 136 191 198 207 188 180 180 179
124 112 118 126 135 124 132 127 121 109 104 97 99 84 65 92 120 130 132 128 136 140 135 147 152 149 167 174 174 176 177 178 184 191 207 186 183 189 199 221 231 166 191 201 211 228 223 214 219 226 236 262 264 255 240 207 218 216 218 222 231 234 232 233 235 237 244 265 243 231 229 232 227 229 229 228 210 193 227 217 229 230 215 182 190
87 88 92 88 94 121 120 115 117 119 112 112 95 63 44 38 53 98 120 123 130 125 128 150 154 158 154 157 161 159 155 161 171 178 181 294 305 192 183 178 229 231 199 212 201 218 210 192 215 232 197 226 255 262 251 240 238 236 236 234 233 231 230 230 230 232 232 237 234 233 234 230 230 229 230 231 223 211 213 215 221 222 211 194 199
129 111 95 102 114 114 110 108 122 115 106 97 81 46 38 20 24 19 84 123 133 135 148 153 155 176 167 169 147 148 140 132 137 143 145 170 242 344 336 217 208 213 228 235 236 239 227 207 196 234 239 240 254 270 278 276 274 266 256 254 253 250 245 239 231 222 233 233 231 231 235 230 230 227 230 231 225 222 226 227 226 208 215 214 217